Location: Brompton
(51.4000°N, 0.5333°E)
Time: 11:43:38
(UTC+00:00)

Cosmos 1898 Rocket - Pass Details

Date: 02 October 2021
Orbit: 752 x 784 km, 74.0° (Epoch: 17 October)

Event Time Altitude Azimuth Distance (km) Brightness Sun altitude
Rises 22:09:44 0° 276° (W) 3,235 7.2 -38.4°
Reaches altitude 10° 22:14:05 10° 311° (NW) 2,322 6.6 -38.7°
Maximum altitude 22:15:42 11° 329° (NNW) 2,236 6.6 -38.9°
Drops below altitude 10° 22:17:20 10° 347° (NNW) 2,331 6.6 -39.0°
Sets 22:21:44 0° 21° (NNE) 3,271 7.2 -39.3°
